sat.trackr.live / text

‹ back to catalog

STARLINK-11160 [DTC]

NORAD 60125 · 2024-118N

PAYLOAD ACTIVE UNKNOWN

§ Identity

Operator
Country
US
Launch date
2024-06-24
Launch site
AFWTR
Launch vehicle
Mass (kg)
RCS (m²)

Purposes: comms

External: N2YO · Heavens-Above · Gunter

§ Orbital elements

Epoch: 2026-09-21T15:41:48.019200Z

Period
91.74 min
Inclination
53.1608°
Eccentricity
0.0001230
Mean motion
15.69698801 rev/d
Perigee alt
358.9 km
Apogee alt
360.6 km
Semi-major
6,737.9 km
B*
6.7450e-6
RAAN
335.0856°
Arg perigee
67.6274°
Mean anomaly
292.4874°
Rev number
12,877

§ Raw data

STARLINK-11160 [DTC]1 60125U 24118N   26264.65402800  .00000228  00000+0  67450-5 0  99932 60125  53.1608 335.0856 0001230  67.6274 292.4874 15.69698801128771

JSON: /api/v1/satellites/60125 · /tle

For live sub-satellite position, see the globe view (requires WebGL).

§ Visibility from observer

Set your observer location to see the next 7 days of passes ≥ 10°. The values pass through the URL so the page stays shareable.

No JS? Fill the form by hand. The geolocation button needs JavaScript.